TIMED (26998 NORAD) Tracking and Keplerian Element Data

This shows tracking and keplerian element data for the satellite.

Feedback or suggestion? Click here.




ElementValue
Catalog26998
NameTIMED
Epoch Orbit92810
Epoch Day20.92155629
Epoch Year2019
RAAN235.4064
Inclination74.0708
Eccentricity3.21E-05
Argument of Perigee214.4837
Mean Anonmoly145.6323
Mean Motion14.88079328
Decay Rate7.1E-07
L11 26998U 01055B 19020.92155629 .00000071 00000-0 11777-4 0 9991
L22 26998 74.0708 235.4064 0000321 214.4837 145.6323 14.88079328928105

Live tracking and technical data element details for TIMED (NORAD 26998). TIMED can be tracked NOW for your location showing map with azimuth and elevation plus other details from your city location.

Track the satellite on the map from your city or location and see movement details for azimuth, elevation, latitude, longitude, range, height, and movement on the map or in text.







IsCatalogInMostPopularTable: catalog: 26998, numindb: 62
Update: records affected: 1



GetName: 26998 TIMED

Hit Count: updated at: Mon, 21 Jan 2019 17:30:46 GMT